Weather History for KCWV - December, 2012

Change the Weather History Date:

Tuesday, December 18, 2012

  Actual Average (KSAV) Record (KSAV)
Temperature  
Mean Temperature 52 °F 51 °F  
Max Temperature 68 °F 62 °F 82 °F (1967)
Min Temperature 37 °F 40 °F 19 °F (1953)
Degree Days  
Heating Degree Days 12 14  
Month to date heating degree days 225  
Since 1 July heating degree days 492  
Cooling Degree Days 0 0  
Month to date cooling degree days 3  
Year to date cooling degree days 2452  
Growing Degree Days 2 (Base 50)    
Moisture  
Dew Point 48 °F    
Average Humidity 77    
Maximum Humidity 100    
Minimum Humidity 26    
Precipitation  
Precipitation 0.00 in 0.09 in 1.86 in (2009)
Month to date precipitation 1.64  
Year to date precipitation 46.65  
Sea Level Pressure  
Sea Level Pressure 29.91 in    
Wind  
Wind Speed 5 mph (West)    
Max Wind Speed 18 mph    
Max Gust Speed 31 mph    
Visibility 9 miles    
Events      
T = Trace of Precipitation, MM = Missing Value Source: NWS Daily Summary

Daily Weather History Graph

Daily Weather History Graph

Search for Another Location

Airport or City:

Trip Planner

Search our weather history database for the weather conditions in past years. The results will help you decide how hot, cold, wet, or windy it might be!

Date:

Astronomy

Dec. 18, 2012 Rise Set
Actual Time 7:23 AM EST 5:25 PM EST
Civil Twilight 6:56 AM EST 5:52 PM EST
Nautical Twilight 6:25 AM EST 6:23 PM EST
Astronomical Twilight 5:55 AM EST 6:53 PM EST
Moon 11:20 AM EST (12/18) 11:30 PM EST (12/18)
Length of Visible Light 10h 56m
Length of Day
10h 02m
Waxing Crescent, 34% of the Moon is Illuminated
Dec 18
Waxing Crescent
Dec 20
First Quarter
Dec 28
Full
Jan 4
Last Quarter
Jan 11
New

Hourly Weather History & Observations

Time (EST) Temp. Dew Point Humidity Pressure Visibility Wind Dir Wind Speed Gust Speed Precip Events Conditions
12:15 AM 60.8 °F 60.8 °F 100% 29.80 in 10.0 mi Calm Calm - N/A   Overcast
12:35 AM 62.6 °F 62.6 °F 100% 29.80 in 7.0 mi SSW 4.6 mph - N/A   Overcast
12:55 AM 62.6 °F 62.6 °F 100% 29.79 in 10.0 mi Calm Calm - N/A   Overcast
1:15 AM 62.6 °F 62.6 °F 100% 29.80 in 10.0 mi SW 5.8 mph - N/A   Overcast
1:35 AM 62.6 °F 62.6 °F 100% 29.80 in 10.0 mi SW 3.5 mph - N/A   Overcast
1:55 AM 62.6 °F 62.6 °F 100% 29.80 in 10.0 mi WSW 5.8 mph - N/A   Overcast
2:15 AM 62.6 °F 62.6 °F 100% 29.81 in 10.0 mi Calm Calm - N/A   Overcast
2:35 AM 62.6 °F 62.6 °F 100% 29.81 in 10.0 mi WSW 4.6 mph - N/A   Overcast
2:55 AM 60.8 °F 60.8 °F 100% 29.81 in 10.0 mi Calm Calm - N/A   Mostly Cloudy
3:15 AM 60.8 °F 60.8 °F 100% 29.81 in 10.0 mi Calm Calm - N/A   Scattered Clouds
3:35 AM 60.8 °F 60.8 °F 100% 29.81 in 7.0 mi WSW 3.5 mph - N/A   Clear
3:55 AM 60.8 °F 60.8 °F 100% 29.82 in 7.0 mi WSW 4.6 mph - N/A   Clear
4:15 AM 60.8 °F 60.8 °F 100% 29.81 in 7.0 mi Calm Calm - N/A   Clear
4:35 AM 60.8 °F 60.8 °F 100% 29.81 in 7.0 mi SW 3.5 mph - N/A   Mostly Cloudy
4:55 AM 59.0 °F 59.0 °F 100% 29.81 in 10.0 mi Calm Calm - N/A   Scattered Clouds
5:15 AM 59.0 °F 59.0 °F 100% 29.81 in 7.0 mi Calm Calm - N/A   Clear
5:35 AM 59.0 °F 59.0 °F 100% 29.81 in 7.0 mi WSW 3.5 mph - N/A   Clear
5:55 AM 59.0 °F 59.0 °F 100% 29.82 in 3.0 mi WSW 3.5 mph - N/A   Clear
6:15 AM 57.2 °F 57.2 °F 100% 29.83 in 7.0 mi WSW 3.5 mph - N/A   Clear
6:35 AM 59.0 °F 59.0 °F 100% 29.84 in 7.0 mi West 3.5 mph - N/A   Clear
6:55 AM 59.0 °F 59.0 °F 100% 29.85 in 7.0 mi West 5.8 mph - N/A   Scattered Clouds
7:15 AM 59.0 °F 59.0 °F 100% 29.86 in 7.0 mi West 5.8 mph - N/A   Clear
7:35 AM 59.0 °F 59.0 °F 100% 29.87 in 7.0 mi West 6.9 mph - N/A   Scattered Clouds
7:55 AM 59.0 °F 59.0 °F 100% 29.87 in 7.0 mi West 8.1 mph - N/A   Mostly Cloudy
8:15 AM 59.0 °F 59.0 °F 100% 29.87 in 10.0 mi West 5.8 mph - N/A   Mostly Cloudy
8:35 AM 59.0 °F 59.0 °F 100% 29.88 in 10.0 mi West 9.2 mph - N/A   Scattered Clouds
8:55 AM 60.8 °F 59.0 °F 94% 29.89 in 10.0 mi West 10.4 mph - N/A   Clear
9:15 AM 60.8 °F 59.0 °F 94% 29.90 in 10.0 mi West 12.7 mph 17.3 mph N/A   Clear
9:35 AM 62.6 °F 57.2 °F 82% 29.91 in 10.0 mi West 15.0 mph 19.6 mph N/A   Clear
9:55 AM 62.6 °F 55.4 °F 77% 29.91 in 10.0 mi West 11.5 mph 19.6 mph N/A   Clear
10:15 AM 62.6 °F 53.6 °F 72% 29.92 in 10.0 mi West 13.8 mph 23.0 mph N/A   Scattered Clouds
10:35 AM 62.6 °F 51.8 °F 68% 29.92 in 10.0 mi West 13.8 mph 19.6 mph N/A   Scattered Clouds
10:55 AM 64.4 °F 48.2 °F 56% 29.92 in 10.0 mi West 13.8 mph 23.0 mph N/A   Clear
11:15 AM 64.4 °F 48.2 °F 56% 29.92 in 10.0 mi West 12.7 mph 20.7 mph N/A   Clear
11:35 AM 66.2 °F 46.4 °F 49% 29.92 in 10.0 mi West 13.8 mph 20.7 mph N/A   Clear
11:55 AM 66.2 °F 44.6 °F 46% 29.92 in 10.0 mi West 18.4 mph 24.2 mph N/A   Clear
12:15 PM 66.2 °F 42.8 °F 43% 29.92 in 10.0 mi WNW 16.1 mph 27.6 mph N/A   Clear
12:35 PM 66.2 °F 37.4 °F 35% 29.91 in 10.0 mi West 16.1 mph 25.3 mph N/A   Clear
12:55 PM 68.0 °F 37.4 °F 33% 29.91 in 10.0 mi WNW 18.4 mph 26.5 mph N/A   Clear
1:15 PM 68.0 °F 37.4 °F 33% 29.91 in 10.0 mi West 17.3 mph 26.5 mph N/A   Clear
1:35 PM 68.0 °F 35.6 °F 30% 29.91 in 10.0 mi WNW 15.0 mph 25.3 mph N/A   Clear
1:55 PM 68.0 °F 33.8 °F 28% 29.91 in 10.0 mi WNW 16.1 mph 31.1 mph N/A   Clear
2:15 PM 68.0 °F 33.8 °F 28% 29.91 in 10.0 mi WNW 13.8 mph 23.0 mph N/A   Clear
2:35 PM 68.0 °F 32.0 °F 26% 29.92 in 10.0 mi West 16.1 mph 25.3 mph N/A   Clear
2:55 PM 68.0 °F 32.0 °F 26% 29.92 in 10.0 mi WNW 13.8 mph 26.5 mph N/A   Clear
3:15 PM 68.0 °F 32.0 °F 26% 29.93 in 10.0 mi West 17.3 mph 23.0 mph N/A   Clear
3:35 PM 66.2 °F 32.0 °F 28% 29.93 in 10.0 mi West 13.8 mph 19.6 mph N/A   Clear
3:55 PM 66.2 °F 32.0 °F 28% 29.94 in 10.0 mi WNW 16.1 mph - N/A   Clear
4:15 PM 64.4 °F 33.8 °F 32% 29.95 in 10.0 mi WNW 10.4 mph 20.7 mph N/A   Clear
4:35 PM 64.4 °F 33.8 °F 32% 29.96 in 10.0 mi WNW 8.1 mph 17.3 mph N/A   Clear
4:55 PM 62.6 °F 35.6 °F 37% 29.95 in 10.0 mi West 3.5 mph - N/A   Clear
5:15 PM 60.8 °F 35.6 °F 39% 29.96 in 10.0 mi West 4.6 mph - N/A   Clear
5:35 PM 55.4 °F 41.0 °F 58% 29.96 in 10.0 mi Calm Calm - N/A   Clear
5:55 PM 53.6 °F 37.4 °F 54% 29.97 in 10.0 mi West 3.5 mph - N/A   Clear
6:15 PM 51.8 °F 42.8 °F 71% 29.97 in 10.0 mi Calm Calm - N/A   Clear
6:35 PM 50.0 °F 41.0 °F 71% 29.98 in 10.0 mi Calm Calm - N/A   Clear
6:55 PM 48.2 °F 41.0 °F 76% 29.99 in 10.0 mi West 3.5 mph - N/A   Clear
7:15 PM 46.4 °F 41.0 °F 81% 30.00 in 10.0 mi Calm Calm - N/A   Clear
7:35 PM 46.4 °F 42.8 °F 87% 30.00 in 10.0 mi Calm Calm - N/A   Clear
7:55 PM 44.6 °F 41.0 °F 87% 30.00 in 10.0 mi Calm Calm - N/A   Clear
8:15 PM 44.6 °F 41.0 °F 87% 30.01 in 10.0 mi Calm Calm - N/A   Clear
8:35 PM 42.8 °F 41.0 °F 93% 30.01 in 10.0 mi Calm Calm - N/A   Clear
8:55 PM 42.8 °F 41.0 °F 93% 30.02 in 10.0 mi Calm Calm - N/A   Clear
9:15 PM 42.8 °F 41.0 °F 93% 30.02 in 10.0 mi Calm Calm - N/A   Clear
9:35 PM 41.0 °F 41.0 °F 100% 30.02 in 10.0 mi Calm Calm - N/A   Clear
9:55 PM 41.0 °F 41.0 °F 100% 30.02 in 10.0 mi Calm Calm - N/A   Clear
10:15 PM 41.0 °F 41.0 °F 100% 30.03 in 10.0 mi Calm Calm - N/A   Clear
10:35 PM 39.2 °F 39.2 °F 100% 30.04 in 10.0 mi Calm Calm - N/A   Clear
10:55 PM 39.2 °F 39.2 °F 100% 30.04 in 10.0 mi Calm Calm - N/A   Clear
11:15 PM 37.4 °F 37.4 °F 100% 30.04 in 10.0 mi Calm Calm - N/A   Clear
11:35 PM 37.4 °F 37.4 °F 100% 30.04 in 10.0 mi Calm Calm - N/A   Clear
11:55 PM 37.4 °F 37.4 °F 100% 30.04 in 10.0 mi Calm Calm - N/A   Clear